Regional Weather Roundup
Issued by NWS Sioux Falls, SD

Home | Current Version | Previous Version | Text Only | Print | Product List | Glossary On
Versions: 1 2 3 4 5 6 7 8 9 10 11 12 13 14 15 16 17 18 19 20 21 22 23 24 25 26 27 28 29 30 31 32 33 34 35 36 37 38 39 40 41 42 43 44 45 46 47 48 49 50
000
ASUS43 KFSD 252010
RWRFSD

WEATHER ROUNDUP FOR SE SOUTH DAKOTA/SW MINNESOTA/NW IOWA
NATIONAL WEATHER SERVICE SIOUX FALLS SD
200 PM CST SUN FEB 25 2018

NOTE: "FAIR" INDICATES FEW OR NO CLOUDS BELOW 12,000 FEET WITH NO
SIGNIFICANT WEATHER AND OR OBSTRUCTIONS TO VISIBILITY.


SDZ038>040-050-052>070-252100-
SOUTHEAST SOUTH DAKOTA

CITY           SKY/WX    TMP DP  RH WIND       PRES   REMARKS
BROOKINGS      SUNNY     29  19  66 W16       29.83R WCI  17
CHAMBERLAIN    SUNNY     34  21  59 SW12      29.87R WCI  25
HURON          SUNNY     29  21  72 SW12      29.85S WCI  19
MADISON        FAIR      25  23  93 W17G23    29.84S WCI  11
MITCHELL       SUNNY     31  20  63 SW15      29.89S WCI  20
SIOUX FALLS    MOSUNNY   29  18  63 W15G24    29.89R WCI  18
WINNER         FAIR      34  19  54 SW13      29.86F WCI  25
YANKTON        SUNNY     36  20  52 W13       29.91S
$$

MNZ071-072-080-081-089-090-097-098-252100-
SOUTHWEST MINNESOTA

CITY           SKY/WX    TMP DP  RH WIND       PRES   REMARKS
FAIRMONT       SUNNY     26  20  77 W18       29.87R WCI  13
JACKSON        SUNNY     27  21  80 SW14      29.86R WCI  15
LUVERNE        SUNNY     30  21  69 SW13      29.89R WCI  20
MARSHALL       SUNNY     30  21  69 W17       29.83R WCI  18
MONTEVIDEO     SUNNY     36  21  55 NW13      29.79R
PIPESTONE      SUNNY     25  18  74 W16       29.84R WCI  12
REDWOOD FALLS  SUNNY     30  22  72 W15       29.81R WCI  19
TRACY          SUNNY     29  24  78 W17G24    29.82R WCI  18
WORTHINGTON    SUNNY     26  20  77 SW25G31   29.85R WCI  11
$$

IAZ001>003-012>014-020>022-031-032-NEZ013-014-SDZ071-252100-
NORTHWEST IOWA

CITY           SKY/WX    TMP DP  RH WIND       PRES   REMARKS
CHEROKEE       SUNNY     33  22  65 W13       29.92S WCI  23
DENISON        SUNNY     36  21  55 SW14      29.97R
ESTHERVILLE    SUNNY     25  19  78 W23       29.86R WCI  10
LE MARS        SUNNY     34  21  60 W5        29.94R WCI  30
ORANGE CITY    SUNNY     30  25  80 W15       29.91R WCI  19
SHELDON        SUNNY     28  21  74 W16       29.88R WCI  17
SIOUX CITY     SUNNY     34  20  56 W9        29.95S WCI  27
SPENCER        SUNNY     30  19  63 W22G30    29.89R WCI  17
STORM LAKE     SUNNY     30  21  69 W18       29.90S WCI  18
$$

ABBREVIATIONS USED IN REMARKS
   TC - TEMPERATURE IN CELSIUS
  WCI - WIND CHILL INDEX
   HX - HEAT INDEX
  VSB - VISIBILITY





USA.gov is the U.S. government's official web portal to all federal, state and local government web resources and services.